TimeMST,TemperatureF,Dew PointF,Humidity,Sea Level PressureIn,VisibilityMPH,Wind Direction,Wind SpeedMPH,Gust SpeedMPH,PrecipitationIn,Events,Conditions,WindDirDegrees,DateUTC
12:53 AM,24.1,17.1,75,30.03,10.0,Calm,Calm,-,N/A,,Clear,0,2012-11-26 07:53:00
1:53 AM,24.1,17.1,75,30.05,10.0,Calm,Calm,-,N/A,,Clear,0,2012-11-26 08:53:00
2:53 AM,19.9,15.1,81,30.10,10.0,Calm,Calm,-,N/A,,Clear,0,2012-11-26 09:53:00
3:53 AM,19.9,14.0,78,30.13,10.0,Calm,Calm,-,N/A,,Clear,0,2012-11-26 10:53:00
4:53 AM,19.9,15.1,81,30.17,10.0,Calm,Calm,-,N/A,,Clear,0,2012-11-26 11:53:00
5:53 AM,21.0,15.1,78,30.20,10.0,Calm,Calm,-,N/A,,Clear,0,2012-11-26 12:53:00
6:53 AM,19.0,12.9,77,30.28,10.0,Calm,Calm,-,N/A,,Clear,0,2012-11-26 13:53:00
7:26 AM,17.6,12.2,79,30.24,1.5,Calm,Calm,-,N/A,,Haze,0,2012-11-26 14:26:00
7:34 AM,17.6,12.2,79,30.25,10.0,Calm,Calm,-,N/A,,Clear,0,2012-11-26 14:34:00
7:53 AM,21.0,16.0,81,30.31,10.0,Calm,Calm,-,N/A,,Clear,0,2012-11-26 14:53:00
8:53 AM,27.0,18.0,69,30.29,10.0,ESE,5.8,-,N/A,,Clear,120,2012-11-26 15:53:00
9:53 AM,35.1,19.9,54,30.28,10.0,Calm,Calm,-,N/A,,Clear,0,2012-11-26 16:53:00
10:53 AM,37.9,19.0,47,30.29,10.0,Calm,Calm,-,N/A,,Clear,0,2012-11-26 17:53:00
11:53 AM,41.0,19.9,43,30.26,10.0,Variable,3.5,-,N/A,,Clear,0,2012-11-26 18:53:00
12:53 PM,43.0,21.0,42,30.23,10.0,Calm,Calm,-,N/A,,Clear,0,2012-11-26 19:53:00
1:53 PM,45.0,19.0,36,30.20,10.0,Calm,Calm,-,N/A,,Clear,0,2012-11-26 20:53:00
2:53 PM,46.0,18.0,33,30.23,10.0,West,5.8,-,N/A,,Clear,270,2012-11-26 21:53:00
3:53 PM,45.0,18.0,34,30.23,10.0,Calm,Calm,-,N/A,,Clear,0,2012-11-26 22:53:00
4:53 PM,39.9,19.0,43,30.26,9.0,Calm,Calm,-,N/A,,Clear,0,2012-11-26 23:53:00
5:53 PM,30.9,18.0,59,30.33,10.0,South,3.5,-,N/A,,Clear,170,2012-11-27 00:53:00
6:53 PM,27.0,16.0,63,30.37,10.0,Calm,Calm,-,N/A,,Clear,0,2012-11-27 01:53:00
7:53 PM,24.1,16.0,71,30.39,10.0,NE,3.5,-,N/A,,Clear,50,2012-11-27 02:53:00
8:53 PM,26.1,16.0,66,30.37,10.0,East,4.6,-,N/A,,Clear,90,2012-11-27 03:53:00
9:53 PM,23.0,16.0,74,30.35,10.0,ENE,4.6,-,N/A,,Clear,70,2012-11-27 04:53:00
10:53 PM,21.9,15.1,75,30.35,10.0,East,4.6,-,N/A,,Clear,90,2012-11-27 05:53:00
11:53 PM,21.9,15.1,75,30.34,10.0,Calm,Calm,-,N/A,,Clear,0,2012-11-27 06:53:00